Theta_e
317 316 316 316 317 320 322 323 325 325 326 323 318 320 319 320 323 319 320 319 319 320 319 320 320 320 321 322 324 326 328 332 332 330 336 335 328 330 330 330 330 329 330 330 331 333 335 335 335 334 335 335 334 332 329 323 320 322 320 316 314 314 314 313 311 310 309 310 314 315 319 322 320 324 332 333 334 333 333 332 330 328 327 327 325 321 317 314 311 309 311 312 314 313 310 311 312
316 315 316 317 320 322 322 324 331 330 327 321 317 322 318 319 321 320 323 321 320 321 321 322 321 323 322 322 324 323 325 329 327 329 334 330 330 331 330 330 330 329 330 329 332 334 334 335 334 334 335 334 333 332 328 322 321 322 320 316 314 314 314 314 312 312 310 313 317 317 322 325 319 321 330 331 331 331 331 330 326 324 323 323 319 315 313 310 309 314 317 314 313 313 313 312 312
315 315 315 320 324 324 324 325 330 329 326 321 320 323 320 319 321 323 322 318 321 323 323 322 321 322 322 325 327 326 328 331 331 332 332 330 331 331 331 330 330 330 329 330 333 334 334 333 333 334 334 334 333 331 326 322 322 321 320 316 315 315 315 315 314 313 310 313 317 319 324 325 320 318 324 329 328 328 328 326 322 319 318 318 314 310 309 310 315 319 322 319 315 315 314 313 312
314 315 317 322 324 324 332 334 333 330 325 322 320 322 325 325 324 322 317 317 323 322 321 320 323 322 323 330 330 329 332 334 334 333 331 331 331 331 331 330 330 330 330 331 332 334 334 333 333 334 334 334 332 328 324 322 321 321 321 317 315 316 315 315 314 314 312 312 314 323 325 322 324 320 321 327 327 327 325 321 317 314 314 313 309 308 310 315 319 321 322 319 313 313 313 312 312
313 315 318 321 323 324 330 330 331 329 322 323 321 322 332 331 324 320 316 319 321 320 320 321 327 326 325 329 328 328 332 336 335 332 331 331 332 331 331 330 330 329 331 332 332 333 333 333 333 334 334 333 331 327 323 321 321 322 322 318 316 316 316 315 314 314 313 313 313 324 327 321 326 326 324 326 325 327 323 317 313 311 310 309 308 310 316 321 322 321 322 318 314 315 314 311 312
314 316 319 319 321 320 324 321 322 327 323 325 323 323 331 326 319 318 317 318 319 319 319 320 326 327 327 329 328 328 330 335 334 331 331 332 332 331 331 331 330 330 331 331 332 332 332 332 332 333 333 332 330 326 322 320 321 323 323 320 317 316 316 315 314 314 313 314 312 320 324 319 322 325 326 326 326 327 323 318 312 308 307 310 312 316 322 324 323 323 323 323 321 318 313 312 313
317 319 320 321 321 319 328 326 321 324 320 319 325 327 325 318 315 317 317 318 318 318 319 320 322 325 329 329 329 328 328 333 333 332 332 333 332 331 331 330 330 330 331 331 331 331 332 332 331 332 331 330 328 325 322 320 321 323 324 322 318 315 315 315 315 314 313 313 312 316 319 317 320 323 325 325 324 325 321 317 311 307 308 313 318 321 324 324 324 324 324 325 323 318 313 314 314
320 321 321 325 327 326 330 326 321 324 317 313 320 324 320 316 316 316 317 318 318 318 319 320 321 324 327 326 327 329 328 330 331 333 334 334 333 332 331 330 330 330 330 330 331 331 331 331 330 330 329 329 327 325 322 321 321 323 324 323 320 317 314 315 314 313 313 312 313 317 317 315 318 319 319 319 322 325 322 317 310 307 309 316 321 322 324 323 324 324 324 323 321 317 315 314 315
320 321 320 323 329 331 329 320 318 320 319 317 317 319 318 317 317 316 317 316 316 318 320 321 320 321 324 325 327 329 329 329 332 333 335 335 333 332 331 331 331 330 330 330 330 331 330 330 329 328 328 327 326 325 322 321 321 323 324 324 322 319 315 314 314 313 313 313 312 314 313 312 313 314 316 318 324 327 324 318 310 307 309 317 320 320 322 322 323 323 323 321 319 317 315 315 317
320 321 319 324 332 329 322 318 320 321 319 319 317 317 318 317 317 315 316 316 315 317 319 320 319 319 323 328 329 328 330 331 332 334 335 334 333 332 331 332 332 331 329 330 330 330 331 330 330 329 328 327 326 324 323 321 321 323 324 324 323 320 317 315 315 314 313 313 312 312 311 311 311 314 319 320 324 326 323 316 309 307 308 314 318 318 320 320 320 321 322 320 317 315 313 314 317
320 318 319 327 332 326 321 320 324 325 319 316 316 317 318 317 316 314 315 316 315 316 317 318 319 321 324 328 329 327 329 331 331 333 335 334 333 331 331 332 333 331 329 329 330 330 331 330 330 331 330 329 326 324 323 322 321 323 324 325 324 322 319 316 315 314 313 313 313 313 311 311 310 311 316 318 320 322 319 313 309 307 306 310 315 315 314 315 315 315 317 315 312 311 311 313 316
318 320 331 334 329 326 327 325 322 324 320 319 318 316 318 316 315 315 315 316 315 316 316 318 319 321 324 326 327 326 328 330 330 332 334 334 334 332 331 332 333 331 330 330 330 330 330 330 331 331 331 330 327 325 324 323 322 323 323 325 325 323 320 317 316 314 314 314 314 314 312 311 310 309 310 311 314 315 314 311 309 308 306 307 309 310 309 309 309 309 310 309 308 309 311 313 314
319 322 335 328 321 325 326 323 320 322 321 320 318 316 318 315 315 316 315 315 316 317 316 317 318 320 325 325 324 325 326 328 331 333 332 332 334 334 332 332 332 331 330 330 331 330 330 330 330 330 331 330 329 326 325 323 322 323 324 324 326 325 322 318 317 315 314 314 314 315 314 312 310 308 308 308 310 311 310 310 309 307 306 307 307 307 307 307 306 306 307 308 309 310 311 312 313
321 321 331 324 318 324 323 321 319 319 322 322 317 314 317 315 316 317 316 318 316 316 316 316 318 320 324 325 323 323 324 329 333 334 332 331 333 334 332 332 332 331 331 331 331 331 330 330 329 330 330 330 329 328 326 324 324 324 324 324 325 326 325 321 318 317 315 315 315 315 316 314 312 310 308 308 307 308 308 308 308 307 306 307 306 306 306 307 308 309 311 312 313 313 313 313 314
321 319 331 329 320 321 321 320 321 322 324 322 316 314 316 315 316 316 316 320 317 315 316 317 319 320 321 325 324 318 320 329 333 334 334 333 333 334 332 332 333 332 332 332 332 332 332 332 330 330 330 330 330 329 328 326 325 325 325 325 325 327 327 324 320 318 317 316 317 317 317 316 314 311 309 308 306 306 306 306 306 306 306 306 305 306 308 310 312 313 314 315 315 314 314 314 314
322 318 328 328 319 319 318 317 320 323 321 317 315 315 315 314 315 316 316 317 317 315 316 317 319 319 317 321 320 314 316 326 332 334 334 335 334 334 333 333 334 333 334 333 333 333 333 334 332 330 330 330 330 330 330 328 327 327 327 326 326 327 328 326 323 320 319 318 318 318 318 318 317 314 310 308 307 306 305 305 306 305 305 307 309 310 313 314 315 316 316 316 316 316 315 314 314
318 323 330 325 320 320 317 318 320 323 322 316 313 315 315 315 314 315 316 316 316 315 315 316 318 318 317 319 319 315 315 322 332 334 334 335 334 334 334 334 334 334 334 334 334 334 334 335 334 332 330 330 331 331 331 330 329 329 328 328 328 328 329 328 326 322 320 320 319 318 318 319 318 316 312 310 309 308 306 306 306 307 308 311 314 315 316 316 316 316 317 317 317 317 316 315 315
320 331 333 324 325 322 319 322 317 319 322 315 313 315 315 316 315 314 316 315 315 315 315 316 317 317 317 319 318 315 313 319 329 333 334 334 334 333 332 333 333 333 333 334 334 334 334 334 334 333 331 331 331 331 331 331 331 330 330 329 329 329 330 329 328 326 323 321 321 320 319 319 319 318 315 313 313 311 309 308 309 311 313 316 317 317 317 317 317 317 318 318 318 317 316 316 316
321 329 329 332 335 321 316 318 313 315 318 315 314 315 315 316 315 315 316 315 315 316 316 315 316 317 317 318 317 315 313 317 325 331 333 332 332 331 330 331 330 330 331 332 332 333 333 334 334 333 332 332 331 331 331 331 331 331 331 330 330 330 330 330 329 328 326 323 322 321 320 319 319 319 318 316 315 315 313 312 313 315 316 317 318 318 318 318 318 319 319 319 319 318 317 317 316
318 321 326 335 330 317 313 314 313 315 315 314 314 314 314 315 315 315 316 314 313 315 316 316 316 316 317 317 317 315 313 316 321 327 330 329 330 329 328 328 326 326 326 327 330 331 332 332 333 333 333 332 332 332 331 331 331 331 331 331 331 330 331 331 330 330 328 326 324 322 321 321 320 319 319 318 317 317 317 316 315 317 318 318 319 320 319 320 319 319 319 319 319 319 318 317 316
316 321 328 325 316 316 316 313 314 315 314 315 314 314 314 314 315 314 314 315 314 314 316 316 316 315 315 316 316 315 313 315 319 324 327 327 327 326 325 324 323 322 323 326 328 329 329 330 331 332 333 333 332 332 332 332 332 332 332 331 331 331 331 331 331 331 330 328 327 324 323 322 322 320 319 319 319 318 319 319 318 318 318 319 319 320 320 320 320 320 320 319 319 319 318 318 317
316 317 319 315 312 316 316 313 315 314 315 315 313 314 315 314 315 314 314 318 318 315 315 316 316 315 315 315 315 316 314 314 317 320 323 324 324 324 323 323 323 323 323 325 326 326 326 327 329 330 331 332 332 332 332 332 332 332 332 332 332 332 332 332 332 331 331 330 329 327 325 324 323 323 322 320 319 319 319 319 319 319 319 319 319 320 320 320 320 320 320 320 320 320 319 318 317
319 315 312 313 313 316 316 314 315 314 315 315 313 314 314 313 314 314 313 316 316 314 315 315 315 315 314 315 315 315 315 314 315 316 318 320 321 320 320 320 321 321 321 322 323 324 325 325 326 327 329 330 331 332 332 333 333 332 332 332 332 332 332 332 332 332 332 331 330 329 328 326 325 324 325 323 320 320 320 320 320 320 320 320 320 320 320 320 321 321 320 320 320 320 319 319 318
320 318 312 313 314 314 316 315 315 315 315 315 315 314 313 314 315 313 313 314 315 314 315 315 315 315 314 315 314 314 315 315 314 314 315 316 316 317 318 318 318 319 319 319 320 322 322 323 324 325 326 328 329 330 331 332 333 333 333 333 332 332 332 332 333 333 332 332 332 331 330 328 327 325 326 325 322 320 320 320 320 321 321 321 321 321 321 320 321 321 321 321 320 320 320 319 318
317 318 313 313 314 315 315 315 315 315 314 314 314 314 313 314 314 313 313 315 315 314 315 316 315 315 314 315 315 315 315 315 315 315 315 315 316 317 319 319 319 319 318 317 317 318 318 319 322 323 323 325 326 328 329 329 331 332 332 333 333 332 332 332 333 334 333 333 332 332 331 330 330 328 327 326 325 323 321 321 320 320 321 321 321 321 321 321 321 322 322 322 321 321 320 320 319
314 315 313 312 313 314 314 314 315 314 314 314 314 314 313 313 313 315 315 315 315 315 315 317 316 315 315 315 315 315 315 315 315 315 315 315 316 317 318 317 317 317 316 316 316 315 316 317 318 319 320 322 323 325 326 327 328 329 330 330 332 332 332 331 333 334 334 333 333 332 332 331 331 330 329 327 327 326 324 322 321 321 321 321 321 321 321 322 322 322 322 323 323 322 321 320 320
314 313 313 313 313 313 313 313 314 314 314 314 316 315 313 313 314 317 316 315 316 315 315 316 316 316 316 315 316 316 315 315 315 315 316 316 316 316 315 316 316 316 315 315 315 314 315 315 316 316 317 319 321 322 323 324 325 326 326 327 329 331 331 331 331 332 333 334 333 332 332 331 332 331 330 329 328 328 327 325 324 323 323 322 322 322 322 321 322 322 322 322 323 322 321 320 320
313 314 314 313 312 313 313 313 313 314 314 313 315 314 313 313 315 316 315 315 316 315 316 316 316 316 316 316 316 316 316 316 315 315 315 315 316 315 315 315 315 315 315 315 315 315 314 314 314 314 315 316 318 319 320 322 322 323 325 325 326 328 330 331 330 329 330 332 333 332 331 330 330 331 331 330 330 329 328 327 326 326 325 325 324 323 322 321 321 322 322 322 322 321 321 320 320
313 315 317 316 317 317 313 312 313 313 315 314 314 314 315 316 316 316 314 315 316 315 315 315 315 316 316 316 316 316 316 316 316 315 315 315 315 315 315 315 315 315 315 315 315 314 315 314 314 314 314 315 315 316 318 319 320 321 323 324 325 327 328 329 330 329 328 329 331 331 331 329 328 329 329 330 330 330 329 328 327 327 327 326 325 324 323 322 322 322 322 322 322 322 321 321 321
314 314 317 319 320 319 312 311 314 313 314 314 312 314 320 320 314 313 314 314 315 315 315 315 316 316 315 315 315 316 316 316 316 315 316 316 315 315 315 315 315 315 315 315 315 315 315 314 314 314 314 314 314 314 315 316 317 318 320 322 324 326 327 328 329 330 329 328 328 330 330 329 328 328 328 329 328 329 329 329 328 328 327 327 326 326 325 324 323 322 322 322 322 322 322 322 321
317 312 319 322 316 320 316 310 313 314 314 313 312 314 320 321 313 312 314 314 314 314 315 315 315 315 315 316 315 316 316 316 316 316 316 315 315 315 315 315 315 315 315 315 315 315 315 315 314 314 314 314 314 314 314 314 315 316 317 319 322 324 326 327 328 329 330 329 327 328 328 327 327 327 328 328 328 328 328 327 327 328 328 328 327 327 326 325 324 323 322 322 322 322 323 322 321
322 313 321 321 313 322 322 310 311 315 314 312 313 316 320 320 314 313 315 314 314 313 314 315 315 315 315 316 315 316 316 316 316 316 316 315 315 315 315 315 315 315 315 315 315 315 315 315 314 315 315 315 315 315 315 315 315 315 316 317 319 322 325 325 327 329 329 329 328 327 327 327 327 327 327 328 328 328 327 327 326 327 327 328 327 327 326 326 324 323 322 323 323 323 323 323 323
324 316 319 321 315 321 320 313 310 312 314 313 312 316 321 319 314 314 314 314 315 314 314 314 315 316 315 315 316 316 316 316 316 316 316 316 316 316 315 315 315 315 315 315 315 315 315 315 314 315 315 315 315 315 316 316 316 316 316 317 318 320 322 322 324 327 328 328 328 329 328 329 329 328 328 329 329 328 329 328 327 326 326 326 326 326 326 325 324 324 323 323 323 323 323 323 323
321 317 319 321 319 318 319 318 312 310 314 315 314 315 319 319 313 314 315 314 314 314 315 315 315 316 316 316 315 316 316 316 317 316 316 317 316 316 316 316 316 316 315 315 315 315 315 315 315 315 315 315 315 316 317 317 318 318 318 318 319 319 320 320 321 324 326 326 327 329 330 330 329 328 329 331 329 328 329 331 330 329 328 327 326 325 325 325 323 323 323 323 323 323 323 323 323
319 318 318 317 317 315 318 321 315 312 315 316 316 316 319 320 313 313 315 314 314 314 314 315 316 316 316 316 316 316 316 316 316 316 316 316 316 316 316 316 317 316 316 316 316 316 316 315 315 315 315 315 315 316 317 318 319 319 319 319 320 320 319 319 320 321 323 325 325 326 328 329 329 328 329 332 332 329 327 328 329 330 330 329 327 326 326 326 325 323 323 323 323 323 323 322 322
321 321 323 323 320 317 318 320 313 311 316 317 318 318 319 320 316 313 315 314 312 313 315 314 315 316 315 316 316 316 316 316 316 316 316 316 316 317 317 317 317 317 317 317 317 317 316 316 316 315 315 315 315 316 316 318 319 319 320 320 320 319 319 319 320 320 320 321 323 323 324 325 327 328 329 331 333 332 328 327 329 329 329 329 329 327 326 326 325 324 324 323 323 323 323 322 321
319 322 325 325 322 319 317 317 313 309 315 318 316 318 318 319 318 313 313 313 310 311 313 314 314 314 315 315 315 315 315 316 315 315 316 316 316 317 317 317 317 317 317 317 317 317 317 317 317 316 316 315 315 316 316 316 317 318 318 319 318 318 319 319 319 319 319 319 321 322 322 321 323 326 329 330 330 330 330 329 331 331 330 329 328 326 326 326 326 325 325 324 324 323 323 323 322
319 321 323 321 319 319 315 315 315 309 312 318 315 316 317 317 317 311 309 310 310 311 311 312 314 314 314 314 314 315 314 314 314 315 315 316 316 316 317 317 317 317 317 317 317 317 317 317 317 317 316 316 316 315 316 316 316 316 317 317 317 318 318 319 319 318 319 319 320 321 321 321 320 322 326 329 328 327 329 332 333 333 331 329 328 326 325 326 326 325 325 325 324 323 323 322 322
323 320 321 321 318 318 315 314 316 312 313 319 318 318 317 316 317 312 308 309 310 311 311 311 313 313 313 314 313 314 314 314 314 314 315 315 315 316 316 317 317 317 317 317 317 317 317 317 317 317 317 317 316 316 316 316 316 316 317 318 318 319 319 320 320 320 321 321 321 321 321 322 322 322 323 325 326 325 325 328 330 330 329 329 330 327 324 326 326 325 324 324 324 323 323 322 321
324 322 320 321 318 318 318 315 315 313 312 316 319 319 317 316 319 315 307 307 310 311 312 312 313 313 314 315 314 315 314 314 314 314 315 315 315 315 315 316 316 316 317 317 317 317 317 317 317 317 317 317 316 316 316 316 317 317 319 320 320 321 321 321 322 323 322 321 321 322 322 323 324 324 324 324 325 325 324 326 327 328 328 329 329 326 322 324 326 326 325 324 324 323 322 322 321
319 327 329 325 323 321 318 316 316 315 313 315 317 317 322 324 327 324 312 307 308 310 312 313 313 314 315 315 315 316 316 316 316 315 315 315 315 315 315 315 316 316 316 316 316 317 317 317 317 317 317 317 317 317 316 316 317 317 319 320 321 321 321 321 321 321 321 320 319 320 321 323 324 325 325 325 325 324 325 328 331 330 327 324 322 322 321 323 327 328 326 324 323 323 322 322 322
315 325 329 325 329 327 319 318 319 319 316 314 312 315 330 333 328 328 319 313 313 309 307 311 313 314 313 314 314 315 315 315 316 315 315 316 316 316 316 316 316 316 316 316 316 317 317 317 317 317 317 317 317 317 316 316 316 317 318 318 319 320 319 319 318 318 318 318 318 319 320 321 323 324 324 325 325 324 324 325 326 325 322 320 321 324 325 324 326 327 325 322 322 322 322 322 323
315 318 320 324 331 327 321 319 317 320 316 311 312 316 322 325 322 321 319 318 321 315 309 309 311 313 312 313 314 314 314 314 314 315 315 316 317 317 317 317 317 317 317 317 317 317 316 317 317 317 317 317 317 317 317 317 316 316 317 317 317 317 317 317 317 318 318 318 319 319 320 320 321 322 323 323 323 323 323 322 322 321 321 324 326 327 327 326 327 327 326 324 323 323 323 322 323
316 316 319 325 328 323 324 324 320 321 316 315 322 320 314 317 318 318 315 317 321 319 315 310 309 314 315 313 314 314 314 315 315 315 315 316 317 317 317 317 317 317 317 317 317 317 317 317 317 317 317 317 317 317 317 316 316 316 316 316 316 316 316 316 317 318 318 319 319 319 320 320 320 321 321 322 322 323 323 324 324 324 325 329 330 329 328 327 328 328 327 326 324 324 324 323 322
317 314 319 323 323 325 330 332 327 319 312 318 325 315 313 322 323 319 314 314 317 318 320 314 310 315 315 314 315 315 315 316 316 316 317 317 317 316 316 317 317 316 317 317 317 318 318 317 318 317 317 318 317 317 317 317 316 316 316 316 316 316 316 316 317 317 318 318 318 318 319 318 318 319 319 319 320 320 321 321 322 323 323 325 327 326 324 323 326 329 328 326 325 326 325 324 322
315 311 317 320 321 325 329 329 325 316 313 323 324 313 313 321 327 325 315 313 319 321 320 315 311 315 315 315 316 315 316 316 315 316 317 317 316 316 316 316 317 316 316 317 317 317 318 318 318 317 318 318 317 317 316 316 316 315 315 315 315 315 315 315 316 316 317 317 317 316 316 316 316 316 316 316 316 317 318 318 320 321 322 323 323 321 321 324 327 327 324 323 324 327 325 323 321
310 316 320 320 323 326 328 329 321 313 318 325 321 315 313 314 324 329 317 313 318 319 319 316 313 315 316 316 316 315 316 315 315 316 316 316 316 316 316 317 317 316 316 317 316 317 317 317 317 317 317 317 317 317 316 316 316 315 315 315 314 314 314 314 314 315 315 315 315 315 315 315 314 314 314 315 315 315 316 317 319 320 322 324 324 322 322 325 326 324 321 320 323 325 323 321 322
312 324 323 318 323 323 325 328 319 314 323 321 315 314 313 313 322 324 318 317 317 315 318 318 314 315 316 316 316 315 315 315 315 315 315 316 316 316 316 316 316 316 316 317 317 317 317 317 317 317 317 317 317 317 317 316 316 316 316 315 315 314 314 314 314 314 314 314 314 314 314 314 314 314 314 314 314 314 315 315 316 317 318 320 322 323 323 324 324 323 322 322 323 322 322 321 322
316 321 321 318 320 318 320 325 319 318 320 314 313 314 312 314 318 316 316 318 316 312 313 316 314 314 316 315 315 315 314 315 315 315 316 315 316 316 315 316 316 316 315 316 316 317 317 317 317 317 317 317 317 317 316 316 316 316 316 316 315 315 314 314 315 314 314 314 314 314 314 314 314 314 313 313 313 313 313 313 313 314 314 315 315 316 318 320 321 322 324 324 323 323 323 321 321
316 317 320 320 320 315 317 320 315 315 317 312 312 314 314 317 315 314 316 313 311 309 309 313 313 313 315 315 315 315 315 316 316 316 316 315 315 315 315 316 315 315 316 315 316 316 316 316 316 316 316 316 316 316 316 315 316 316 316 316 315 315 315 315 315 315 315 314 314 314 314 314 313 313 313 313 312 312 312 312 312 312 312 312 312 311 312 312 314 317 319 320 320 320 319 317 318
315 316 316 318 323 322 319 319 318 318 319 314 310 313 321 321 312 312 312 308 309 311 310 312 313 313 314 314 315 315 315 316 316 316 316 315 316 315 315 316 315 316 316 316 316 316 316 316 316 316 316 316 316 315 315 315 315 315 316 316 316 315 315 315 315 315 315 315 314 314 314 314 313 313 313 313 312 312 311 311 311 311 311 310 310 310 309 309 310 313 315 317 318 318 318 318 317
315 313 312 314 321 323 317 314 317 317 316 316 313 316 324 320 312 312 308 306 308 310 311 313 313 313 313 313 315 314 315 316 315 316 316 316 316 316 316 316 316 316 316 316 316 316 316 316 316 316 316 316 316 316 316 316 316 316 316 316 316 316 316 316 316 315 315 315 315 315 314 314 314 314 313 313 312 312 312 311 311 311 311 310 310 310 309 308 312 316 318 319 321 321 320 320 319
315 312 316 317 315 321 319 310 310 311 311 315 315 318 321 316 314 316 312 311 311 309 310 311 311 312 311 312 315 314 316 316 315 316 315 316 316 316 316 316 315 315 315 315 315 315 316 315 315 315 315 316 316 316 316 316 316 316 316 316 316 316 316 316 316 316 315 315 315 315 315 315 314 314 314 313 313 313 312 312 312 311 311 310 310 310 309 308 312 317 319 319 320 321 320 320 320
318 317 318 314 309 317 320 313 316 316 314 318 316 315 318 317 316 319 315 313 315 315 311 307 308 312 311 313 315 315 316 315 315 316 315 316 316 315 316 315 315 315 314 315 315 315 315 315 315 315 315 315 315 316 316 316 316 316 316 317 316 316 317 316 316 316 315 315 315 315 315 315 315 314 314 314 314 314 313 313 313 312 312 311 310 310 309 308 310 314 317 318 318 319 319 320 320
316 317 314 314 316 319 316 313 318 318 314 320 319 312 313 315 318 320 315 314 319 317 312 308 310 311 311 314 316 315 315 314 315 315 315 315 315 315 315 315 315 315 315 315 315 315 315 315 315 316 315 315 315 315 316 316 316 316 316 316 316 317 317 316 317 316 316 316 316 316 316 315 316 315 315 315 314 315 314 314 314 313 313 312 311 310 309 308 308 310 313 315 316 316 317 318 320
311 311 309 315 322 321 317 314 315 316 314 318 320 317 316 317 318 319 314 316 320 316 314 313 311 310 312 315 316 315 315 315 315 315 315 315 315 315 315 315 315 315 315 315 315 315 316 316 316 316 316 316 315 315 316 316 316 316 316 316 316 316 317 316 316 316 316 317 316 316 316 316 316 316 315 315 315 315 315 314 314 314 313 313 312 311 309 308 308 309 311 312 314 316 317 318 319
313 314 312 315 316 315 317 315 313 317 319 318 318 316 319 319 317 316 314 316 319 315 316 315 309 310 315 315 315 315 314 315 315 314 315 315 315 315 315 315 315 314 315 315 315 315 315 315 316 316 316 315 315 316 316 316 316 315 316 316 316 316 316 316 316 316 317 317 317 316 317 316 316 316 316 316 316 315 315 314 314 314 314 313 312 311 310 308 309 310 312 314 316 317 317 316 317
313 314 315 315 315 315 316 314 312 314 316 318 318 313 316 321 316 313 312 312 312 310 310 311 310 312 315 313 314 314 314 315 314 314 315 314 315 315 315 315 315 314 315 314 315 315 315 315 315 315 316 315 315 316 316 316 316 315 315 315 315 316 316 316 316 316 316 317 317 317 316 316 316 316 316 316 316 316 315 315 314 314 314 313 313 312 310 309 308 309 311 313 315 315 314 315 316
Wind_Speed
7 6 4 2 2 3 2 1 2 3 4 2 1 1 2 3 2 2 3 1 2 1 2 6 9 12 7 6 8 7 6 4 5 3 3 9 19 21 18 19 18 17 15 14 14 13 13 12 12 12 10 9 7 6 7 7 9 10 11 11 11 11 12 13 13 15 15 15 15 15 16 13 13 17 18 15 12 11 10 9 9 9 8 7 5 4 4 5 7 9 10 10 10 11 12 12 13
8 6 3 2 2 3 3 1 1 3 5 1 2 2 2 2 1 5 6 3 4 7 12 16 15 13 10 10 10 7 5 0 4 4 9 19 24 21 19 19 17 16 14 14 14 13 13 13 12 11 10 9 7 7 7 7 8 9 11 11 11 12 13 13 13 14 14 14 14 16 15 12 13 16 17 14 12 11 9 8 8 7 7 6 5 5 4 6 9 11 11 11 10 10 11 12 13
7 5 3 4 3 1 2 3 2 1 4 2 4 3 1 1 5 7 6 5 12 17 17 15 11 9 7 6 5 3 2 1 6 11 18 25 24 23 21 19 17 15 14 15 14 14 13 13 12 11 10 9 7 6 6 7 7 9 10 11 11 12 13 13 13 13 14 13 13 15 13 13 14 15 16 13 11 9 8 6 6 6 7 7 6 5 6 8 10 12 12 11 11 10 10 11 13
6 4 3 4 2 1 3 3 2 4 3 3 3 4 2 4 8 6 4 10 18 17 10 7 6 5 3 4 4 3 3 4 11 18 23 25 23 23 22 19 17 15 15 15 15 14 13 13 12 11 10 9 7 6 6 6 7 8 9 10 10 11 12 13 13 12 13 13 14 14 12 14 14 14 15 12 10 8 7 6 6 7 8 8 7 7 8 10 11 12 12 11 10 9 9 11 13
5 4 3 4 2 1 3 3 2 4 3 5 2 5 5 6 7 5 5 12 17 9 5 5 4 3 4 5 3 1 4 8 14 19 23 23 21 23 23 21 18 17 16 15 15 14 13 12 12 11 11 9 7 6 5 6 6 7 9 9 9 10 11 12 12 12 12 12 14 14 11 13 14 13 13 11 10 7 7 8 9 9 10 9 8 9 10 11 12 12 12 10 9 9 10 11 12
4 4 2 2 1 3 3 2 2 2 5 5 4 5 5 7 7 6 7 10 10 5 6 6 5 6 5 4 3 4 8 9 14 18 21 23 22 23 23 22 19 18 17 16 15 14 13 12 12 12 10 9 7 6 5 5 6 7 8 9 8 9 10 11 12 12 12 12 13 13 10 12 13 13 11 8 7 5 5 8 10 11 11 11 10 11 12 13 13 13 13 11 10 10 10 10 11
4 3 2 2 3 3 3 3 4 3 3 5 4 5 6 8 8 7 7 7 5 5 7 6 10 9 3 3 4 7 8 7 14 18 20 22 22 23 22 22 20 19 18 17 15 14 13 12 12 11 10 9 7 6 5 5 5 6 7 9 9 9 9 10 11 11 11 11 11 11 11 12 13 12 9 7 9 6 3 7 10 12 12 12 12 13 13 13 13 13 12 11 10 10 10 10 10
4 3 2 2 2 4 4 2 2 2 1 3 4 5 11 12 11 8 5 5 4 5 7 11 13 6 2 4 3 6 6 8 15 18 20 21 22 23 22 22 21 20 18 17 15 15 14 13 12 11 10 8 7 6 5 5 5 5 6 8 9 10 9 9 10 10 10 10 10 11 11 12 12 11 9 10 11 7 3 6 10 12 12 13 13 13 13 13 13 12 11 11 10 10 10 9 10
4 3 1 3 2 3 3 2 0 2 2 4 3 5 12 14 12 9 4 2 4 7 10 15 9 1 5 5 4 8 6 9 15 18 20 21 22 22 22 21 20 19 18 17 15 14 13 12 12 10 9 8 6 6 6 5 5 5 6 7 8 9 9 9 9 9 9 9 9 10 10 10 10 10 10 11 12 8 4 6 10 11 11 12 12 12 12 12 12 12 11 10 10 10 9 9 10
4 2 1 3 3 3 2 1 1 1 3 4 3 7 14 15 12 8 5 3 6 8 9 12 4 3 9 6 5 9 9 10 16 21 20 20 22 21 21 20 18 18 18 17 15 14 14 13 12 11 9 8 7 6 6 6 6 5 5 6 7 8 8 8 8 8 8 8 9 10 9 9 9 9 10 11 11 9 5 7 11 11 11 11 11 11 11 11 11 11 11 9 9 8 7 8 9
2 0 3 4 4 2 2 2 3 3 4 4 3 7 14 17 11 5 6 6 7 8 9 8 4 8 10 5 7 11 12 12 17 22 20 20 21 21 21 19 18 17 17 17 16 15 14 13 12 11 10 8 8 7 6 7 7 6 5 5 5 6 7 8 8 8 8 8 8 9 9 9 8 7 8 8 9 8 6 8 12 11 10 9 9 9 8 8 8 9 9 7 6 6 6 7 8
2 2 3 4 2 3 4 3 3 5 5 3 2 6 14 16 9 6 8 8 7 6 8 7 6 11 7 2 8 12 15 13 16 20 19 20 20 20 20 20 19 17 17 17 16 16 14 14 13 12 11 9 8 8 8 7 7 7 6 5 4 5 6 7 7 8 8 8 8 8 8 8 8 6 6 6 7 7 6 9 11 10 9 8 7 6 5 5 6 7 6 5 5 6 6 6 7
3 1 5 3 3 3 4 4 2 2 4 4 4 6 14 14 8 11 12 8 8 6 6 6 10 11 4 2 7 14 17 15 17 18 18 19 20 20 21 21 19 19 18 17 16 16 15 14 14 13 12 11 10 9 8 8 8 7 6 5 4 4 5 6 6 7 8 8 7 7 7 7 7 6 5 5 6 6 6 8 10 9 9 7 6 5 5 5 6 6 6 5 6 6 6 6 6
4 4 4 3 1 2 5 3 1 3 3 5 4 8 14 11 8 14 13 7 6 6 6 7 12 9 3 4 6 16 20 17 19 18 18 18 19 20 21 22 19 19 18 17 17 16 15 15 14 14 13 12 11 10 9 9 9 8 7 6 5 4 4 5 5 6 6 7 7 6 6 6 6 5 5 5 5 6 7 8 9 9 8 7 6 5 5 6 6 6 6 6 6 6 6 6 6
4 3 4 3 2 1 4 2 2 5 4 4 5 11 14 8 7 14 13 8 6 7 8 8 13 6 3 7 6 16 21 20 22 20 20 19 19 20 21 22 21 20 19 18 17 16 16 15 15 14 14 13 12 11 10 10 9 9 8 7 7 5 4 4 5 5 5 6 6 6 5 5 5 4 4 4 5 6 7 7 8 9 8 7 6 6 6 6 6 6 6 6 6 7 6 6 6
3 2 4 3 1 1 4 2 3 3 5 5 8 12 10 4 9 14 11 8 7 10 9 8 15 7 5 9 3 11 21 23 24 22 23 22 21 21 20 22 22 21 20 19 18 17 17 16 16 15 15 14 13 12 11 11 10 10 9 9 8 7 6 5 5 6 5 5 5 5 4 4 4 4 5 5 5 6 6 7 8 8 8 7 7 7 6 6 6 6 6 7 7 7 7 6 5
3 2 4 3 2 3 4 4 4 3 5 5 10 14 8 3 9 12 10 8 9 13 10 8 15 11 7 7 4 12 22 24 26 25 25 24 24 24 23 24 23 23 22 21 20 19 18 17 17 17 16 16 15 14 13 12 11 12 11 10 10 9 8 7 6 6 6 6 5 5 4 3 3 3 5 5 5 6 6 7 7 8 8 7 7 6 6 6 5 6 6 7 7 7 7 6 5
3 2 4 2 3 3 5 7 7 4 4 7 12 16 10 6 9 11 8 7 10 12 10 9 13 11 8 7 6 15 22 24 27 27 27 28 27 27 27 27 25 25 24 23 22 21 20 19 19 19 18 18 17 16 15 14 13 13 13 12 12 11 11 10 9 7 7 7 6 5 4 4 3 4 5 6 6 6 7 7 7 8 7 7 6 6 6 5 5 5 5 6 6 6 6 5 4
3 3 3 3 5 4 4 6 8 4 3 9 12 13 12 9 12 12 7 5 9 9 7 9 11 11 9 9 9 16 22 24 26 27 29 29 29 29 29 29 28 27 26 25 24 23 22 21 20 20 20 19 19 18 17 16 16 16 15 14 13 13 13 12 11 10 9 8 7 7 6 5 4 5 5 6 7 7 7 7 7 7 7 6 6 5 5 5 4 4 5 4 4 4 4 4 3
2 3 3 5 7 4 4 5 7 6 5 11 12 11 10 9 13 12 7 6 6 8 10 10 12 14 12 11 13 18 21 23 25 27 28 29 28 28 28 28 28 26 25 25 24 24 23 22 22 21 20 20 20 20 19 19 18 17 17 16 15 15 14 14 13 12 11 10 9 8 7 6 5 5 6 6 8 8 7 8 8 7 7 6 6 4 4 4 4 4 4 4 3 3 3 2 2
2 4 3 6 6 3 3 3 4 6 8 13 13 9 6 8 12 11 10 7 3 11 18 16 15 16 15 14 15 19 22 23 25 26 27 28 28 27 26 25 24 23 22 24 25 24 23 23 22 22 21 21 22 21 21 20 20 19 19 18 17 16 16 15 15 14 13 12 11 10 9 8 7 6 6 7 8 8 8 8 8 8 8 7 6 4 3 4 3 3 3 3 2 2 1 1 0
3 2 2 5 7 3 3 2 1 5 9 12 11 8 7 8 10 12 13 8 7 13 18 18 16 15 15 16 17 19 22 23 25 26 27 28 27 26 25 24 24 23 23 24 25 24 23 23 22 22 22 22 22 22 22 22 22 21 21 20 19 18 18 17 17 16 15 14 13 12 11 10 9 8 7 8 9 9 9 9 9 9 8 8 7 6 5 5 4 4 4 3 3 2 2 2 2
2 2 2 6 6 2 4 3 1 6 11 13 12 9 9 9 7 12 16 14 12 9 10 15 16 14 15 17 18 20 21 23 24 24 25 26 26 25 24 23 24 23 23 23 24 24 24 23 23 23 23 23 22 23 23 23 23 23 22 21 21 20 19 19 18 18 17 16 15 15 14 12 11 10 9 9 10 10 10 10 10 10 10 9 9 8 7 7 6 5 5 5 5 4 4 3 4
2 1 1 5 5 3 4 3 2 6 10 11 11 9 8 10 6 7 16 21 16 9 7 10 15 16 15 17 19 19 20 21 21 21 21 22 21 21 21 22 22 23 23 23 23 24 24 24 24 24 23 23 23 23 24 24 24 24 23 23 22 22 21 21 19 19 19 18 17 17 16 15 13 12 11 10 11 11 11 11 11 12 11 11 11 10 10 9 8 7 7 7 7 6 6 5 5
2 3 4 5 4 4 5 3 3 5 7 8 9 7 6 8 5 4 14 20 16 13 10 8 12 16 18 18 19 20 20 20 20 20 21 21 22 22 24 24 24 25 25 23 23 23 23 23 24 25 24 24 24 24 24 24 24 25 25 24 24 23 23 22 21 20 21 20 20 18 18 17 16 15 13 12 12 12 12 12 13 13 13 13 13 12 12 11 10 9 8 8 8 8 8 7 7
3 5 6 6 4 4 5 4 4 5 6 7 6 3 1 5 3 7 15 17 15 14 12 9 9 13 18 19 20 21 21 21 21 20 21 22 24 26 26 26 26 26 24 23 23 23 22 23 24 25 25 25 25 25 25 25 25 25 25 25 24 24 24 23 22 22 22 22 21 20 19 19 18 17 16 15 14 14 14 14 13 13 13 14 14 14 13 13 12 11 10 9 9 10 10 9 9
7 8 7 6 4 3 3 4 4 5 5 4 5 2 1 3 2 6 8 9 13 16 15 14 11 12 14 17 19 21 21 21 20 21 21 23 25 25 25 26 26 25 24 24 23 23 23 23 24 24 25 25 26 26 26 26 26 26 26 25 25 25 24 24 23 23 23 23 23 22 21 20 20 19 18 17 17 16 16 15 15 14 14 14 14 15 15 15 14 13 12 12 11 11 12 11 11
11 13 8 6 4 1 1 3 4 4 3 1 3 1 2 2 2 6 4 3 8 14 17 17 16 15 14 15 17 20 22 20 21 23 23 23 23 22 22 23 23 23 23 22 21 23 23 23 24 24 25 25 26 27 28 28 27 26 27 26 26 26 25 25 25 24 24 24 24 24 24 23 22 20 20 20 19 18 18 18 17 16 15 15 15 15 16 16 16 15 14 14 14 13 14 14 13
11 10 4 6 7 3 2 1 3 2 2 1 4 0 4 3 7 6 4 5 5 10 16 18 18 18 17 16 17 19 21 21 24 26 24 23 21 21 21 20 20 21 21 20 21 23 23 24 24 24 25 26 26 27 28 29 28 27 27 28 27 27 27 26 27 27 26 24 25 26 26 25 23 22 21 21 22 21 20 20 19 18 17 16 16 17 17 17 17 17 17 17 16 16 16 15 15
6 4 4 2 7 4 3 1 2 3 2 2 4 1 6 8 11 8 4 6 5 7 13 17 19 20 19 19 19 20 20 22 25 25 23 23 22 22 22 20 21 22 21 21 23 23 23 24 25 25 26 27 26 26 27 28 29 29 28 28 28 28 28 27 27 28 28 27 26 27 28 27 25 24 23 23 23 24 23 22 21 20 18 18 18 18 18 18 19 19 18 18 18 18 17 17 17
2 2 3 2 1 4 5 2 4 4 1 2 5 1 6 9 9 5 7 12 11 12 13 16 20 21 22 21 21 21 21 23 24 23 24 23 23 24 23 22 23 24 23 24 24 23 23 24 25 26 26 27 27 27 27 27 28 29 28 28 28 29 29 29 29 29 30 30 29 29 29 28 27 26 25 24 25 25 25 23 22 21 20 20 20 19 19 19 20 20 20 19 19 19 19 19 18
3 2 2 3 2 5 7 2 4 4 1 2 5 1 6 9 8 3 0 8 11 14 14 14 18 20 22 23 23 23 23 23 23 24 24 24 25 26 25 24 24 24 25 25 24 24 25 25 25 26 26 27 27 27 27 28 28 29 29 29 28 29 30 30 30 30 31 31 31 31 30 29 28 27 26 25 26 26 26 25 23 21 21 21 21 21 21 20 20 21 21 21 20 20 20 20 19
4 3 2 2 2 3 5 2 2 1 2 1 2 3 3 5 5 2 5 4 3 8 11 12 15 18 21 23 23 24 24 23 25 25 24 24 25 25 25 25 25 25 25 25 26 26 26 26 27 27 26 26 26 26 27 27 28 28 29 29 28 29 30 31 30 31 32 32 32 32 31 30 30 30 28 27 27 27 28 27 24 24 23 22 22 23 23 22 21 22 22 22 22 22 22 21 20
3 2 2 3 3 2 2 3 3 2 2 1 1 2 6 7 9 8 6 6 4 6 9 10 12 15 18 21 23 24 24 25 26 25 23 22 23 23 24 24 24 25 25 26 26 27 27 27 28 27 27 27 26 26 26 26 27 27 28 28 28 29 30 31 30 31 32 33 33 33 32 32 32 32 31 31 31 28 29 29 28 28 26 23 23 24 25 25 24 23 22 23 24 25 25 24 22
5 3 3 3 2 3 3 3 2 2 2 2 0 2 9 11 13 19 19 13 11 13 14 14 15 17 18 20 23 24 25 27 27 24 23 23 23 23 24 24 23 24 24 25 25 26 27 27 28 28 28 28 27 27 27 27 27 27 28 27 28 29 30 31 31 32 32 33 33 33 33 34 34 33 32 35 36 31 29 29 30 31 29 27 25 25 28 29 26 25 24 24 25 27 28 27 25
9 7 5 5 4 4 5 4 4 1 3 3 5 5 8 10 10 17 23 17 13 16 18 20 21 22 23 24 26 27 29 31 28 26 25 24 24 23 23 24 23 23 23 23 24 24 25 26 28 28 29 29 28 29 28 28 29 29 29 29 30 30 31 31 32 33 33 33 33 32 32 32 34 35 34 36 38 36 32 30 31 33 31 30 29 28 30 31 30 29 28 26 26 28 30 31 29
7 6 5 4 4 3 4 3 5 1 3 3 4 4 8 11 10 15 24 18 12 18 21 23 26 26 28 29 31 32 33 34 31 29 27 24 23 23 23 24 24 24 24 24 24 23 23 24 26 27 27 28 29 30 30 30 30 30 30 31 31 31 31 32 33 34 33 33 33 32 32 31 31 34 36 37 38 38 36 35 37 37 34 31 30 31 32 34 35 33 30 29 29 30 32 32 31
5 6 5 2 2 2 2 2 4 3 1 3 2 3 8 11 10 16 21 14 12 21 22 24 28 28 30 31 32 34 34 33 31 29 26 23 23 22 22 23 24 25 24 24 25 23 23 23 25 25 26 28 29 29 30 30 30 30 30 30 30 31 31 32 33 34 33 34 34 34 33 32 31 31 34 38 38 37 37 39 40 37 35 35 32 32 34 39 40 36 34 32 30 32 34 33 33
5 4 5 3 2 2 3 3 4 4 1 3 4 5 9 11 10 15 18 14 18 24 23 24 27 28 30 31 33 33 33 32 29 27 25 23 23 23 23 23 23 24 24 25 26 25 25 25 24 24 24 26 27 28 29 29 29 29 30 31 31 32 32 33 33 34 34 34 34 34 34 34 33 31 31 34 36 36 35 37 38 36 38 40 36 33 37 42 44 40 37 35 32 33 36 35 34
4 4 5 3 2 1 1 2 3 3 2 1 3 5 8 7 6 11 13 14 18 21 21 23 25 27 29 29 31 32 32 31 28 25 21 20 21 22 22 22 23 24 25 26 27 26 26 25 24 22 23 24 25 26 27 28 29 30 31 32 32 33 34 34 34 35 36 35 35 35 36 35 34 34 33 33 34 35 35 38 39 36 37 40 40 39 39 41 45 43 39 38 36 37 39 39 36
1 3 6 3 3 4 3 1 2 2 3 2 2 4 6 5 5 7 6 5 10 12 14 17 19 20 22 23 25 25 25 25 22 18 14 14 15 16 17 18 20 22 23 23 23 23 23 23 22 21 21 22 23 25 26 27 29 30 32 33 34 35 36 36 37 37 37 37 36 36 36 36 36 36 35 35 35 34 35 39 41 40 40 42 42 43 41 39 43 43 41 42 43 43 42 42 41
2 3 6 7 7 6 2 1 4 4 4 4 4 3 5 5 5 7 5 6 8 8 8 15 17 17 20 23 23 22 22 21 19 15 13 12 12 12 13 14 15 16 16 17 17 18 19 20 21 21 21 21 21 23 25 27 29 30 32 33 35 36 36 37 37 37 37 36 36 36 36 36 36 37 37 37 38 37 37 38 41 43 43 43 42 44 44 42 42 44 44 45 45 45 44 45 46
1 4 5 7 7 8 5 3 4 1 2 3 4 3 4 7 5 7 6 7 9 9 8 15 19 18 20 24 26 25 23 19 16 14 12 10 10 10 10 11 12 12 11 13 14 14 15 16 18 19 20 20 21 22 23 26 28 30 32 33 34 36 37 37 36 36 36 36 36 36 36 36 36 37 38 39 41 41 40 38 39 39 40 45 48 50 50 47 45 46 46 47 47 46 45 47 48
3 3 6 7 7 8 6 5 4 2 3 4 4 4 2 6 6 7 6 6 10 10 9 13 16 14 13 16 18 17 14 10 8 7 7 6 5 4 5 6 8 9 10 11 11 11 12 13 15 16 18 19 20 21 23 25 26 28 30 32 34 35 36 36 35 36 36 36 37 37 37 37 37 37 39 40 41 41 40 39 38 37 39 45 47 45 46 47 49 50 49 50 50 48 46 47 48
3 3 7 6 6 7 5 6 4 1 1 4 5 1 2 6 7 6 5 4 9 10 9 10 13 11 5 1 1 1 2 3 2 2 0 0 2 3 4 2 3 5 8 9 9 10 10 12 13 15 17 18 20 21 22 24 25 27 28 30 32 33 33 34 34 35 35 36 37 37 37 37 37 38 38 39 40 41 41 41 40 40 40 42 42 42 45 49 54 54 50 52 54 51 47 46 47
4 6 7 6 6 6 5 5 4 2 2 4 6 1 2 5 7 4 3 2 7 8 7 8 9 6 7 11 12 11 10 8 6 5 4 3 3 3 4 4 3 1 2 5 8 9 10 11 13 14 15 17 18 20 21 23 24 26 28 29 31 31 31 32 33 33 34 35 36 36 36 36 36 37 37 37 38 38 39 40 40 40 39 41 43 44 46 49 51 50 47 51 54 51 43 43 46
10 7 7 7 6 5 4 3 4 3 2 6 6 2 1 3 6 4 3 4 6 3 4 5 6 9 12 13 14 12 10 8 6 5 4 2 3 2 2 4 5 5 4 1 2 5 6 8 9 11 13 14 16 18 19 21 23 25 26 27 28 29 29 29 30 31 31 32 32 32 33 33 34 35 35 35 36 36 37 38 39 40 40 41 42 43 44 45 47 48 48 49 51 49 45 47 50
8 5 5 5 4 4 4 4 4 1 5 6 4 2 2 4 6 4 4 6 5 3 2 3 5 8 10 10 10 9 8 8 6 5 4 2 3 4 4 4 5 5 5 4 2 2 3 5 7 9 10 12 14 16 18 20 21 23 24 25 26 25 26 27 27 27 27 28 28 29 29 30 31 32 32 33 34 34 35 36 38 40 41 43 44 46 47 47 48 49 49 48 49 51 51 51 52
5 5 6 5 2 3 2 3 1 3 6 4 2 2 2 6 7 7 9 9 7 8 9 6 6 6 5 6 6 7 8 8 8 6 6 5 6 5 4 4 3 4 4 3 2 2 3 5 7 9 10 12 14 16 17 19 20 21 22 23 23 23 23 23 23 23 24 25 25 26 27 27 28 29 29 30 29 30 31 33 35 37 39 41 43 46 48 50 52 52 50 49 50 51 50 51 52
4 5 6 4 3 2 2 4 2 4 4 3 3 2 3 4 5 9 12 9 6 8 9 7 8 9 7 5 5 9 10 9 9 9 8 8 7 5 4 3 4 4 4 4 3 3 5 7 9 10 12 13 15 17 18 20 20 20 20 21 21 21 21 20 20 21 21 22 23 24 24 25 26 26 26 25 25 26 27 29 31 33 35 37 39 42 44 47 50 53 54 54 53 54 53 52 53
3 3 6 5 5 5 4 4 3 4 3 3 3 1 3 2 1 6 9 8 8 9 9 8 9 9 6 6 7 9 9 8 9 10 9 9 8 7 6 6 6 6 6 6 5 5 6 7 9 11 12 14 16 18 20 21 21 20 20 20 20 19 19 19 19 19 20 20 21 21 22 22 23 23 22 22 22 24 25 26 28 31 32 35 37 39 40 41 42 45 48 50 52 54 54 51 49
2 2 5 3 5 5 3 3 5 3 1 2 2 3 4 3 5 8 5 5 8 10 11 9 9 9 5 2 5 7 8 9 10 11 10 8 8 8 8 8 8 8 7 7 6 6 7 8 9 10 11 12 15 18 20 22 22 21 20 19 18 18 18 18 18 18 18 19 19 20 20 20 20 20 20 21 21 21 23 23 26 28 30 33 35 36 37 38 40 41 42 45 48 50 50 49 49
2 2 3 5 4 7 5 2 1 3 1 3 1 4 5 3 7 8 3 4 5 5 8 7 5 4 1 5 6 7 10 12 13 12 11 9 8 8 9 10 10 10 9 8 8 8 9 10 10 11 12 13 14 16 19 21 22 22 21 18 17 18 17 17 18 18 18 18 19 19 18 18 19 19 19 19 20 20 21 22 24 26 28 30 32 34 35 37 40 43 43 42 43 44 46 48 49
5 3 6 4 2 4 4 2 2 4 3 4 1 4 5 2 4 6 4 5 7 5 4 2 0 3 7 9 9 12 14 15 14 14 13 12 11 10 10 11 11 11 11 11 12 12 14 15 15 17 17 17 17 18 19 21 22 22 21 20 18 17 17 18 18 18 18 19 19 18 18 17 17 17 18 18 19 20 21 22 23 25 26 27 30 32 33 35 39 45 46 45 45 44 46 48 47
4 4 4 4 3 1 2 2 1 1 3 4 4 4 3 4 5 4 2 6 8 7 3 3 3 6 8 9 13 16 17 16 15 14 14 12 11 10 10 10 10 11 13 15 17 17 19 19 19 19 19 18 18 18 19 20 22 22 21 20 20 19 19 20 20 20 20 19 19 18 17 17 17 18 18 19 20 20 21 22 23 24 25 26 29 30 31 33 35 41 45 47 47 46 47 48 48
4 3 3 3 3 4 3 3 4 3 2 3 4 4 3 6 6 5 7 9 9 7 4 6 7 8 10 13 16 16 15 15 13 13 12 10 9 10 10 11 14 16 18 20 20 20 20 20 20 20 19 17 16 17 18 19 20 22 21 20 21 21 21 22 22 21 21 20 19 19 18 18 18 19 20 20 21 21 22 23 23 24 25 26 28 29 30 32 33 35 38 41 43 45 46 47 46
3 4 4 2 1 2 2 1 3 4 3 2 3 4 5 5 4 8 10 9 8 7 6 8 9 11 13 15 16 15 13 12 11 11 10 9 9 11 13 16 19 20 20 21 21 20 20 20 20 21 20 17 14 16 19 19 19 20 21 21 22 23 24 25 24 23 23 22 21 20 20 20 21 21 22 22 23 23 24 24 25 25 26 27 28 29 30 31 33 35 36 39 41 43 44 45 44
6 6 7 7 5 4 3 3 1 2 3 4 3 4 7 5 4 6 6 4 6 6 8 11 11 13 14 14 14 12 11 11 10 11 11 11 11 13 16 18 19 20 20 20 20 20 20 20 20 20 20 17 13 15 18 19 20 20 21 21 21 23 25 26 27 26 25 24 23 22 22 23 23 23 24 24 25 25 26 26 27 27 27 28 29 30 30 31 33 36 39 41 43 43 44 47 46
Wind_Direction
249 254 262 270 256 225 250 150 113 3 67 93 23 112 218 208 225 154 141 149 98 27 97 133 130 130 124 122 136 113 101 160 165 147 194 154 146 155 155 154 157 157 158 157 156 153 149 148 148 144 140 142 139 120 98 79 66 55 51 52 63 72 73 75 75 75 77 80 84 87 92 95 112 129 127 122 123 126 124 118 113 106 105 109 111 108 109 98 91 89 89 89 85 82 82 84 85
249 252 258 221 223 220 228 77 89 347 53 100 260 167 243 315 174 176 181 184 135 117 107 110 111 108 98 103 105 82 63 109 177 160 145 144 148 157 158 157 157 157 158 157 154 152 151 149 149 146 143 144 140 124 100 82 68 58 53 56 68 74 73 75 76 77 78 81 85 86 91 96 108 130 135 127 125 134 134 128 123 112 106 112 115 109 96 89 88 89 89 92 90 85 84 87 85
249 245 235 212 213 193 181 58 81 88 80 161 254 240 261 164 191 205 198 152 127 122 110 105 95 85 79 81 70 68 69 70 156 144 142 149 155 157 159 158 156 157 157 155 153 153 153 151 151 148 146 147 143 126 103 88 71 61 55 58 71 75 74 74 76 78 80 84 87 88 94 102 105 126 140 134 128 135 146 152 140 121 116 119 116 109 101 95 94 92 92 96 95 87 81 80 78
242 230 221 217 216 99 85 53 123 122 125 189 234 255 238 185 205 220 179 132 134 126 110 104 73 53 41 77 84 92 107 126 152 149 149 156 158 156 157 156 156 157 155 153 152 153 155 155 153 151 150 151 148 130 111 96 77 64 56 59 71 76 76 76 77 78 81 85 90 92 95 104 106 119 130 131 128 123 137 155 138 125 125 124 122 117 109 101 99 97 97 99 98 91 80 71 70
232 218 219 240 240 127 91 69 111 112 178 185 158 254 245 201 206 200 145 138 149 133 107 122 82 80 90 102 90 95 146 145 157 157 153 155 158 158 157 156 157 156 155 153 153 155 157 158 156 156 156 157 155 137 119 103 86 68 59 59 65 75 76 77 80 79 83 87 94 99 96 102 111 118 119 127 131 118 117 126 120 123 127 126 126 119 109 103 101 101 101 97 97 95 82 70 68
211 192 221 246 138 122 115 106 141 163 214 168 146 242 232 205 199 164 135 142 160 152 144 144 133 127 99 87 67 134 149 150 165 163 154 155 160 161 159 157 158 158 156 155 156 158 160 162 163 163 161 161 162 143 124 109 92 73 63 56 58 69 73 76 81 81 84 89 97 105 102 102 111 111 109 121 121 110 117 117 114 121 126 125 120 113 105 103 102 101 101 97 98 98 85 75 73
185 192 232 134 84 64 108 141 175 196 206 168 173 200 194 201 189 151 132 137 146 147 158 162 146 129 97 101 101 150 157 162 168 162 155 157 162 164 162 159 161 162 160 159 159 160 162 166 169 170 166 168 169 151 133 123 106 83 68 57 53 58 68 75 80 84 85 88 96 105 104 99 105 109 121 131 110 102 116 115 115 121 125 120 112 108 104 103 103 103 104 105 103 98 90 82 82
177 212 242 121 48 31 92 116 193 186 161 212 225 183 178 184 172 156 147 146 144 148 154 159 149 119 142 147 142 173 169 167 167 163 159 161 165 168 165 162 165 167 165 165 162 163 165 168 173 176 175 177 175 163 153 144 129 100 78 63 57 54 64 73 78 82 84 87 91 98 102 105 114 122 135 132 112 106 102 111 119 123 125 119 113 112 108 105 104 104 108 110 107 100 93 87 94
179 220 277 94 76 32 56 29 287 205 287 259 242 180 175 173 165 158 147 130 147 146 148 158 156 104 174 166 169 173 163 164 168 167 164 167 171 171 168 165 168 170 170 171 169 168 169 172 175 178 180 185 185 174 165 154 146 121 94 75 66 61 65 72 76 79 81 81 82 90 98 108 119 120 124 125 118 118 118 126 129 126 128 123 119 118 115 114 113 113 112 110 107 104 98 97 107
182 208 125 80 84 45 29 328 289 228 280 273 236 183 171 170 169 166 153 134 150 145 149 166 175 148 161 166 167 167 165 167 172 172 171 172 175 176 170 166 171 175 175 175 174 173 174 178 177 180 184 188 192 186 176 168 163 147 121 99 83 76 74 77 80 81 84 81 77 83 90 99 111 115 121 130 129 133 143 141 138 133 133 130 126 126 125 123 121 121 117 113 108 104 102 106 117
184 354 107 74 74 100 179 203 273 276 280 301 277 192 173 171 170 169 153 139 152 145 151 171 180 148 146 162 175 171 170 173 176 175 173 174 178 178 172 169 174 181 182 180 178 178 178 181 182 184 187 191 195 193 188 181 176 168 149 128 105 94 89 89 91 89 91 88 84 84 89 96 105 116 120 132 138 146 149 140 143 139 140 140 134 134 132 123 119 120 119 115 104 96 97 103 118
199 352 85 84 128 184 187 163 241 283 310 311 240 191 178 175 171 167 151 147 160 150 160 175 179 154 130 179 185 177 174 172 176 180 179 177 179 178 176 176 177 183 186 185 183 182 183 185 188 189 192 196 197 198 196 188 187 182 169 155 127 107 101 101 100 98 98 95 93 89 94 100 105 116 118 130 142 155 153 144 148 146 149 152 144 140 128 116 112 114 113 104 89 88 92 94 106
195 146 94 98 169 159 144 136 222 299 328 268 200 183 179 180 190 177 153 147 161 154 174 181 175 161 133 225 195 182 176 172 176 187 190 183 181 179 181 181 180 184 188 190 189 189 189 190 193 195 197 199 201 202 201 193 193 193 185 178 156 128 114 111 107 102 102 98 94 91 91 97 104 112 114 121 131 148 158 152 154 154 156 157 151 142 125 115 109 105 100 90 81 81 84 82 87
190 170 114 108 118 110 140 127 198 170 256 249 194 176 179 191 203 175 153 146 168 163 174 183 179 169 164 203 206 191 176 172 180 188 196 192 187 184 183 183 184 187 190 193 195 197 196 197 199 200 203 202 204 204 203 199 197 202 200 195 184 164 137 125 120 110 107 102 96 92 89 92 98 107 111 112 115 129 147 152 156 158 161 158 145 134 125 115 106 102 95 89 82 77 75 74 78
176 155 106 102 60 65 165 163 155 155 230 223 174 176 174 198 205 176 166 161 173 163 158 173 181 185 212 191 211 198 177 170 180 187 193 195 193 190 186 184 187 190 192 195 197 203 203 205 205 205 208 206 209 207 207 204 203 208 209 208 201 192 174 155 145 132 122 114 105 103 98 96 101 107 113 116 120 127 140 147 153 157 159 149 134 130 125 118 110 104 96 89 82 75 73 72 74
170 132 81 81 78 174 178 170 129 131 244 200 162 171 163 188 185 179 182 169 165 165 165 178 185 211 242 197 205 193 177 169 176 185 191 194 194 195 193 188 190 192 195 198 199 203 206 211 210 209 211 211 212 211 213 211 210 213 214 217 212 205 197 188 175 159 148 136 125 120 112 106 111 119 127 133 133 131 136 142 151 152 150 141 134 137 130 123 116 103 93 85 77 72 69 70 72
167 105 72 78 153 199 185 171 168 163 229 201 168 173 158 147 169 180 190 182 172 169 181 191 192 218 238 209 204 183 178 171 174 183 190 194 195 197 199 194 193 195 198 200 202 204 206 210 211 212 212 213 215 214 216 216 216 218 218 220 218 214 206 206 201 183 174 163 152 147 138 130 130 136 141 146 144 138 139 144 150 146 145 143 140 143 136 128 118 104 96 84 76 71 69 71 68
161 105 99 150 178 199 187 177 189 162 180 192 182 179 166 151 163 170 175 179 175 173 192 196 197 215 211 207 204 182 180 175 176 183 189 193 197 199 200 199 198 199 200 201 203 205 207 209 210 213 213 214 216 217 218 218 220 222 223 222 222 222 215 215 213 204 196 185 177 171 166 161 154 158 155 155 155 150 148 151 153 150 154 154 149 148 140 136 126 113 104 90 82 75 72 73 66
136 101 110 202 201 206 203 185 188 162 163 182 179 182 176 170 164 163 166 171 169 172 198 198 201 207 194 195 193 184 183 181 181 185 191 194 198 200 200 202 203 204 204 204 205 206 207 210 211 213 215 216 218 219 220 221 223 225 228 227 225 225 222 222 219 215 210 202 199 191 184 180 171 172 172 168 167 165 162 163 163 164 168 164 159 159 152 148 141 130 119 106 94 83 80 78 68
150 116 121 234 211 208 235 210 196 198 187 170 171 181 180 177 169 169 172 162 177 197 199 195 200 200 190 184 183 185 186 186 186 189 194 197 200 203 203 204 207 209 210 210 210 209 210 211 213 215 215 217 220 222 222 224 225 227 230 231 229 228 226 226 223 222 219 215 213 208 200 195 192 190 190 187 182 181 179 176 176 179 182 181 180 175 166 163 158 151 140 130 119 99 90 86 79
177 139 171 222 183 158 222 209 203 215 197 171 166 166 176 184 178 180 164 140 236 228 210 209 209 202 192 186 183 188 191 190 191 194 197 200 203 207 209 211 214 216 215 214 215 216 216 215 216 218 217 219 222 224 225 226 227 228 231 232 232 231 230 228 227 227 225 223 222 222 217 209 206 204 206 204 195 194 194 192 191 193 196 198 201 197 192 194 188 183 175 168 162 146 122 119 122
144 179 235 178 152 132 192 188 173 183 171 163 157 157 181 182 186 195 174 163 227 230 225 224 224 215 206 201 191 189 194 195 196 198 201 204 207 211 214 216 219 222 221 220 220 222 223 222 222 221 221 222 224 226 228 229 230 231 232 233 234 234 233 231 231 232 231 229 228 229 226 222 217 214 216 215 211 206 205 207 205 206 210 213 217 216 215 216 216 215 212 210 205 204 212 229 248
152 254 276 155 161 164 161 173 164 157 158 164 166 172 181 172 194 210 197 208 223 229 245 234 231 229 221 213 200 194 197 199 201 203 205 207 210 214 216 218 220 223 225 226 225 226 228 228 227 226 225 226 227 228 229 230 232 234 235 235 236 237 237 235 234 234 235 234 233 233 232 232 228 225 224 222 221 217 212 213 216 219 221 223 227 228 230 229 230 232 232 232 228 225 228 238 247
126 171 228 155 179 196 161 163 166 172 174 176 175 178 186 181 192 214 214 226 229 237 260 239 231 227 221 216 210 208 204 203 207 209 211 212 215 217 220 221 224 226 228 229 229 229 231 231 231 231 230 229 230 230 231 232 233 235 236 237 238 239 240 240 239 237 236 237 237 236 234 236 235 233 232 229 227 225 222 219 220 225 227 230 233 234 236 236 236 238 242 245 246 241 236 240 245
92 164 191 145 149 175 170 165 151 174 179 172 172 173 193 197 200 234 231 232 230 234 242 237 226 220 219 219 218 218 213 211 212 212 214 216 219 220 223 225 227 230 231 230 230 231 233 232 233 235 234 233 232 233 234 234 234 235 236 238 239 240 241 242 242 240 238 239 238 238 237 238 238 236 235 234 231 229 228 226 226 228 231 234 236 238 240 239 239 239 243 249 256 257 250 246 247
199 165 163 137 116 143 163 174 148 151 162 164 171 159 171 193 228 264 249 242 233 228 225 223 219 215 218 221 223 223 222 221 218 216 217 217 218 220 223 226 229 232 233 234 233 233 233 233 234 236 237 237 236 235 236 237 237 237 238 239 240 241 243 244 244 242 241 240 240 240 241 240 240 240 237 236 235 234 232 231 230 230 233 237 240 242 243 243 243 240 242 245 254 263 259 254 253
176 134 112 98 92 124 148 177 165 152 153 166 178 190 258 159 209 260 253 244 228 222 219 221 225 221 219 223 227 228 230 231 228 224 220 219 220 222 223 225 229 232 234 235 235 235 235 235 236 237 238 238 238 239 239 239 239 240 242 241 241 242 244 246 247 245 243 242 242 241 241 241 240 239 239 238 237 237 236 234 234 234 236 239 242 244 244 245 244 242 242 243 247 254 256 255 254
149 130 94 33 34 102 81 150 167 156 143 170 157 189 304 121 213 239 227 239 226 220 220 221 224 226 226 228 230 230 232 233 233 230 225 224 225 227 227 228 232 233 235 237 236 237 237 236 236 237 238 239 240 241 242 242 241 240 242 243 243 244 244 246 249 249 247 245 244 243 242 242 240 237 238 240 240 239 238 237 236 237 238 241 244 245 246 245 244 242 240 241 241 243 247 250 251
134 125 105 348 5 13 319 107 168 155 118 140 116 22 295 233 226 231 216 231 228 219 223 223 225 229 231 233 232 231 232 231 230 231 230 231 233 234 234 236 239 240 243 244 241 240 240 239 239 239 239 240 240 241 242 244 245 243 240 243 245 245 245 246 248 252 253 250 246 245 245 244 241 237 236 239 241 241 241 239 238 237 239 242 245 245 246 245 244 242 240 240 241 241 244 247 249
124 89 104 12 6 349 307 15 175 151 112 164 126 235 278 255 241 232 216 230 229 224 227 227 230 233 234 234 234 234 235 233 232 233 233 234 235 237 240 241 241 243 247 245 244 244 243 242 241 241 241 241 242 243 243 243 245 246 243 242 243 245 247 247 248 250 254 254 251 248 247 246 243 239 237 238 241 243 241 238 237 238 239 242 245 246 247 247 245 244 243 243 243 244 246 248 249
95 45 56 49 83 271 304 349 162 142 177 200 119 163 260 273 277 259 235 245 249 247 241 235 235 236 236 235 236 238 239 239 240 241 240 239 239 240 244 245 243 244 245 244 246 247 246 245 244 244 243 243 244 245 246 246 246 248 248 245 243 243 246 247 247 248 250 254 255 252 250 249 246 242 239 239 243 247 247 242 236 235 240 244 245 247 248 248 247 245 245 245 246 248 249 250 251
38 94 317 342 166 259 311 316 172 149 184 162 114 194 265 277 294 25 216 255 250 246 245 241 238 238 238 239 240 243 245 244 245 246 245 244 244 246 249 249 247 247 247 247 249 249 247 246 246 245 245 245 245 245 247 248 249 250 250 249 248 246 246 247 247 247 249 252 255 256 254 252 251 250 246 241 243 248 252 252 246 242 244 244 245 247 248 249 249 249 247 246 248 250 251 252 253
1 106 196 271 177 265 315 313 255 155 138 105 111 216 266 287 267 95 51 357 285 245 244 241 243 244 242 243 244 247 250 249 248 249 249 248 247 248 250 250 249 249 250 251 251 251 250 249 248 247 247 247 247 247 247 248 250 251 251 250 249 248 248 248 247 246 248 250 253 255 255 252 251 254 253 247 244 247 251 254 255 254 251 249 250 251 250 251 253 252 251 249 250 251 252 252 252
295 58 142 225 193 201 281 293 299 52 116 261 26 230 249 278 275 265 292 318 308 270 257 250 251 253 250 248 248 249 251 253 252 252 253 254 254 253 252 252 251 250 250 251 251 252 253 252 251 250 250 249 248 249 249 250 251 252 252 250 249 249 249 249 248 246 246 247 249 251 252 252 252 253 253 251 248 249 249 249 253 252 247 247 252 255 253 252 254 255 254 253 253 253 252 251 250
191 185 157 211 212 201 240 253 254 56 75 232 20 282 262 271 282 278 278 286 287 279 274 270 265 261 258 254 252 251 253 256 257 258 261 262 262 261 259 256 255 253 251 250 250 251 252 252 252 252 251 251 251 251 251 251 251 252 252 250 248 247 247 248 248 248 247 246 246 247 247 250 253 253 252 251 251 255 254 250 252 248 241 244 251 257 253 247 250 255 256 254 252 252 252 249 247
173 178 149 156 175 225 242 250 265 121 110 229 224 237 265 272 283 281 277 281 285 280 276 272 268 263 260 257 256 256 257 260 261 264 266 265 264 263 261 258 255 255 253 250 249 250 251 251 251 250 249 250 251 251 250 250 250 250 249 248 247 247 246 245 246 248 248 248 247 246 245 246 249 251 252 250 250 256 259 256 253 246 242 244 249 257 256 250 251 254 255 254 253 252 250 246 242
142 133 114 146 166 235 251 264 304 57 137 251 243 243 270 270 274 275 275 283 284 273 270 265 262 259 258 258 258 259 260 262 265 267 266 263 262 262 261 258 255 253 252 249 248 250 253 253 251 249 248 249 249 249 250 250 250 250 250 250 250 251 249 247 247 247 248 249 250 250 249 247 245 244 246 248 249 253 256 258 252 243 240 242 249 259 260 256 252 250 250 252 254 255 252 248 243
103 131 130 133 170 219 245 253 316 8 143 261 341 314 274 263 267 269 271 277 266 259 257 257 258 256 256 257 257 259 261 263 266 266 264 263 263 261 261 258 254 253 252 252 253 255 257 256 254 252 249 249 249 250 251 251 252 253 255 257 258 258 257 255 253 252 251 250 250 252 253 253 250 244 241 244 249 251 252 253 251 247 248 246 250 260 261 257 249 241 244 246 250 256 252 249 247
82 118 131 136 198 236 285 298 333 14 41 264 343 333 275 261 261 262 259 253 255 257 255 258 260 260 259 258 258 260 262 264 265 265 264 264 264 263 262 260 258 257 256 255 255 256 256 255 256 255 253 250 250 250 251 252 254 256 259 260 262 262 262 261 260 259 257 255 254 253 254 255 255 252 246 245 249 251 250 251 250 251 254 249 248 256 260 258 249 240 243 245 249 257 251 246 247
87 110 129 165 237 162 224 289 330 8 57 262 308 307 280 280 282 273 264 252 259 265 263 262 260 259 260 260 260 261 262 264 266 266 266 265 264 264 264 263 262 261 259 258 257 257 255 255 256 257 257 255 254 253 253 255 256 257 258 259 261 261 262 262 261 260 258 258 257 255 254 254 254 253 252 249 249 250 251 254 251 249 253 251 250 256 258 257 250 243 245 247 252 257 251 246 247
44 137 139 160 202 173 188 304 343 352 20 29 2 319 292 319 327 296 298 282 270 269 265 263 257 253 256 259 260 260 260 262 263 265 270 272 271 270 269 266 263 260 258 258 259 259 257 255 256 258 259 259 259 258 257 257 256 256 256 257 257 258 259 259 258 258 258 257 257 256 255 254 253 253 253 252 251 250 249 250 250 250 255 252 251 256 254 252 249 246 249 253 257 259 254 250 248
296 218 176 174 172 163 173 35 57 36 356 346 24 360 290 318 318 276 312 343 303 290 273 265 263 257 255 258 260 258 258 260 263 269 276 281 281 278 275 270 266 263 259 255 256 257 255 254 254 255 258 261 262 262 260 259 258 258 258 257 258 258 259 260 262 263 263 263 263 262 260 258 256 255 255 255 255 254 250 247 247 250 256 255 252 255 253 249 245 244 251 256 258 259 256 250 248
223 237 178 154 133 128 142 117 81 87 264 314 43 107 263 309 301 268 306 334 308 304 284 272 277 277 267 263 263 264 267 269 271 273 276 280 281 278 273 269 267 264 257 251 250 251 251 250 250 252 256 259 262 262 261 261 260 261 261 261 262 263 264 266 269 270 269 270 269 267 266 264 262 260 259 258 258 259 258 255 253 253 257 255 251 250 249 248 245 244 253 259 258 257 254 251 249
210 229 129 121 117 129 143 110 91 201 238 328 14 110 233 295 270 269 321 335 308 302 288 287 300 303 287 270 264 266 270 266 261 260 267 281 287 288 278 261 253 247 242 241 244 247 247 247 248 250 253 256 258 259 260 260 261 263 264 265 265 265 267 269 271 271 270 270 269 268 268 267 265 263 262 261 260 260 258 257 255 254 255 254 252 251 251 253 249 246 254 260 256 251 253 252 249
234 198 117 118 120 124 120 97 93 24 358 314 315 105 192 272 275 300 346 329 293 291 284 294 317 325 321 292 205 130 123 146 128 116 184 46 60 27 6 335 262 235 228 225 227 233 236 239 242 246 250 254 257 259 260 261 262 264 264 265 266 267 268 270 270 269 269 268 268 268 268 267 266 265 263 262 261 259 257 255 254 252 251 251 253 255 256 257 251 247 254 261 254 248 252 251 247
173 143 96 78 72 78 76 89 103 46 20 251 258 206 186 267 287 312 3 272 257 274 282 292 326 8 75 86 87 88 88 92 87 78 80 75 53 16 11 22 29 24 232 220 219 222 226 231 237 243 248 253 258 261 263 264 265 266 266 266 268 269 270 269 269 269 268 267 268 268 268 268 268 267 265 264 263 261 259 258 256 254 253 252 252 252 255 257 251 250 261 265 256 249 253 253 250
138 112 70 58 33 32 43 52 77 56 307 255 248 251 172 267 282 255 208 218 220 250 302 306 356 53 84 87 85 84 82 85 87 87 91 63 22 22 50 55 48 42 34 13 232 225 228 237 243 250 256 259 264 267 268 270 270 270 270 271 272 272 272 271 270 269 269 269 269 269 270 270 270 269 268 266 264 262 260 258 256 254 252 251 252 252 254 256 256 259 265 262 254 252 260 262 258
116 89 84 82 2 7 24 360 35 100 258 264 262 275 171 216 263 252 242 257 232 203 216 276 341 36 70 84 86 76 69 70 73 89 102 79 67 87 105 85 64 50 41 35 8 306 266 265 266 268 272 274 275 276 276 277 276 275 275 275 275 274 273 271 270 270 270 270 270 271 270 270 269 268 268 266 265 263 261 260 258 256 253 251 251 251 252 254 257 261 261 255 251 253 256 258 256
77 93 100 91 5 6 352 310 341 217 245 276 286 271 210 228 251 255 260 265 249 235 224 234 299 332 26 64 79 58 54 58 59 76 86 83 96 110 115 98 73 56 42 35 12 329 299 292 290 289 291 289 287 285 284 283 280 279 278 277 276 275 273 271 270 270 269 269 269 270 269 268 268 267 267 267 267 267 265 263 260 259 258 256 255 254 253 253 253 255 256 254 253 255 257 258 258
121 132 127 124 126 105 266 264 285 258 257 295 288 263 259 272 265 245 250 254 256 257 240 247 296 305 326 7 50 53 56 60 58 70 80 84 94 99 95 80 62 52 39 26 5 335 311 302 299 300 299 295 292 291 289 288 285 281 278 277 276 274 273 271 270 268 268 267 267 266 267 267 268 268 268 268 269 268 266 263 262 260 259 258 258 257 255 254 251 250 252 253 255 257 260 261 261
177 157 131 145 157 159 212 216 212 242 273 304 294 255 206 201 262 240 245 258 263 260 250 263 290 294 322 19 57 60 62 67 67 75 77 75 78 78 75 67 55 47 41 32 17 357 338 325 316 314 314 308 304 300 297 294 290 284 277 274 273 272 271 269 266 264 263 263 264 265 266 267 269 270 270 270 268 266 263 261 260 260 259 259 258 259 258 254 250 249 249 251 253 255 254 254 257
246 119 109 164 183 143 138 183 176 174 302 306 257 236 215 205 279 272 250 259 262 254 253 260 272 280 298 51 83 71 71 79 81 81 76 72 75 75 72 71 67 60 52 42 25 9 358 349 343 341 339 334 327 320 314 307 297 286 278 274 271 268 265 261 258 258 260 262 264 265 266 267 268 270 270 270 268 267 265 262 260 260 261 261 260 260 259 252 245 246 249 251 253 255 254 254 259
171 124 173 214 170 114 111 209 63 83 243 271 212 250 292 324 296 299 303 284 292 277 264 262 266 282 236 144 123 88 86 89 86 81 76 74 74 74 71 67 62 56 51 41 28 19 11 3 356 353 350 348 345 339 331 322 310 295 283 274 267 261 258 255 254 256 258 260 261 261 263 264 266 269 271 272 271 270 269 266 266 264 264 265 264 263 260 251 242 242 248 252 254 256 256 258 261
128 177 205 192 117 91 107 192 359 46 245 275 265 244 290 319 278 322 338 277 283 280 269 309 237 143 124 130 117 97 92 89 86 81 76 74 69 61 54 44 35 34 33 26 19 11 5 359 353 350 347 345 345 344 339 331 323 312 294 277 263 255 251 250 250 252 253 254 255 257 261 264 267 269 270 271 270 270 270 270 271 271 271 269 268 266 262 254 243 240 245 250 253 256 258 260 263
126 171 165 122 138 172 98 148 184 136 237 281 304 278 265 210 229 304 285 223 246 249 202 118 171 150 120 113 107 101 95 89 86 81 75 69 59 45 33 20 11 10 6 1 358 353 351 349 347 346 344 341 339 339 339 333 325 319 303 281 263 253 248 247 248 249 251 251 252 256 260 264 267 269 270 271 270 270 270 271 272 274 274 272 271 270 265 257 248 243 244 246 249 253 257 259 261
60 101 104 83 134 166 158 152 164 171 200 261 309 320 273 227 217 218 219 215 225 230 169 162 180 138 110 112 111 106 97 87 79 71 63 54 41 25 12 1 354 352 351 352 352 350 349 348 346 345 341 337 333 334 337 332 324 317 305 285 268 259 253 251 250 251 251 251 253 257 259 262 266 269 270 271 271 273 273 273 273 273 274 274 273 272 267 259 252 248 247 247 248 253 256 258 260
110 122 153 181 85 106 156 157 119 139 161 194 281 299 270 251 214 198 218 221 210 204 154 152 160 131 119 120 113 102 88 76 63 53 45 35 24 7 355 349 347 348 351 354 355 351 349 348 345 343 338 333 328 329 333 329 322 317 308 293 278 270 265 261 257 254 252 253 254 257 259 262 264 266 269 272 273 275 275 275 275 275 276 275 274 273 270 262 254 250 248 247 251 254 256 258 260
166 176 185 181 157 122 153 242 254 122 157 170 192 267 262 252 213 201 228 230 198 179 130 126 134 130 125 115 101 85 69 55 40 31 21 8 359 347 340 340 341 346 350 351 349 346 343 342 340 337 334 328 321 324 328 326 321 317 313 306 290 278 274 271 268 262 259 257 257 259 261 263 264 266 269 272 273 276 277 277 277 278 278 277 276 274 270 264 258 252 247 246 248 251 253 255 256